Weather History for KFYV - September, 2013

Change the Weather History Date:

Wednesday, September 4, 2013

  Actual Average Record
Temperature  
Mean Temperature 72 °F 73 °F  
Max Temperature 88 °F 85 °F 103 °F (1998)
Min Temperature 55 °F 61 °F 44 °F (1974)
Degree Days  
Heating Degree Days 0 0  
Month to date heating degree days 0 0  
Since 1 July heating degree days 0 1  
Cooling Degree Days 7 8  
Month to date cooling degree days 42 35  
Year to date cooling degree days 1171 1160  
Growing Degree Days 22 (Base 50)    
Moisture  
Dew Point 59 °F    
Average Humidity 67    
Maximum Humidity 100    
Minimum Humidity 34    
Precipitation  
Precipitation 0.00 in 0.14 in 0.19 in (2008)
Month to date precipitation T 0.54  
Year to date precipitation 31.07 32.43  
Sea Level Pressure  
Sea Level Pressure 30.09 in    
Wind  
Wind Speed 2 mph (NE)    
Max Wind Speed 12 mph    
Max Gust Speed 17 mph    
Visibility 10 miles    
Events      
T = Trace of Precipitation, MM = Missing Value Source: NWS Daily Summary

Daily Weather History Graph

Daily Weather History Graph

Search for Another Location

Airport or City:

Trip Planner

Search our weather history database for the weather conditions in past years. The results will help you decide how hot, cold, wet, or windy it might be!

Date:

Astronomy

Sep. 04, 2013 Rise Set
Actual Time 6:50 AM CDT 7:39 PM CDT
Civil Twilight 6:24 AM CDT 8:05 PM CDT
Nautical Twilight 5:54 AM CDT 8:36 PM CDT
Astronomical Twilight 5:22 AM CDT 9:07 PM CDT
Moon 6:03 AM CDT (9/4) 7:00 PM CDT (9/4)
Length of Visible Light 13h 40m
Length of Day
12h 48m
Waning Crescent, 1% of the Moon is Illuminated
Sep 4
Waning Crescent
Sep 5
New
Sep 12
First Quarter
Sep 19
Full
Sep 26
Last Quarter

Hourly Weather History & Observations

Time (CDT) Temp. Heat Index Dew Point Humidity Pressure Visibility Wind Dir Wind Speed Gust Speed Precip Events Conditions
12:53 AM 60.1 °F - 59.0 °F 96% 30.05 in 10.0 mi Calm Calm - N/A   Clear
1:53 AM 59.0 °F - 59.0 °F 100% 30.05 in 10.0 mi Calm Calm - N/A   Clear
2:53 AM 59.0 °F - 57.9 °F 96% 30.05 in 10.0 mi Calm Calm - N/A   Clear
3:53 AM 57.9 °F - 57.0 °F 97% 30.06 in 9.0 mi Calm Calm - N/A   Clear
4:53 AM 57.0 °F - 57.0 °F 100% 30.06 in 10.0 mi Calm Calm - N/A   Clear
5:53 AM 55.9 °F - 55.9 °F 100% 30.08 in 10.0 mi Calm Calm - N/A   Clear
6:53 AM 55.9 °F - 55.0 °F 97% 30.10 in 8.0 mi Calm Calm - N/A   Clear
7:53 AM 59.0 °F - 57.9 °F 96% 30.12 in 10.0 mi Calm Calm - N/A   Clear
8:53 AM 66.0 °F - 61.0 °F 84% 30.13 in 10.0 mi Calm Calm - N/A   Clear
9:53 AM 75.0 °F - 62.1 °F 64% 30.14 in 10.0 mi Calm Calm - N/A   Clear
10:53 AM 82.0 °F 82.7 °F 61.0 °F 49% 30.14 in 10.0 mi South 5.8 mph - N/A   Clear
11:53 AM 84.0 °F 84.0 °F 60.1 °F 44% 30.13 in 10.0 mi NW 5.8 mph - N/A   Clear
12:53 PM 86.0 °F 85.4 °F 59.0 °F 40% 30.12 in 10.0 mi ENE 6.9 mph - N/A   Clear
1:53 PM 87.1 °F 86.5 °F 59.0 °F 39% 30.11 in 10.0 mi North 5.8 mph - N/A   Clear
2:53 PM 87.1 °F 86.5 °F 59.0 °F 39% 30.10 in 10.0 mi ENE 8.1 mph - N/A   Clear
3:53 PM 88.0 °F 86.5 °F 55.9 °F 34% 30.08 in 10.0 mi NE 6.9 mph - N/A   Clear
4:53 PM 87.1 °F 85.7 °F 55.9 °F 35% 30.06 in 10.0 mi Variable 4.6 mph - N/A   Clear
5:53 PM 86.0 °F 85.0 °F 57.9 °F 38% 30.06 in 10.0 mi NE 3.5 mph - N/A   Clear
6:53 PM 84.0 °F 83.5 °F 57.9 °F 41% 30.06 in 10.0 mi ENE 3.5 mph - N/A   Clear
7:53 PM 75.0 °F - 61.0 °F 62% 30.07 in 10.0 mi Calm Calm - N/A   Clear
8:53 PM 70.0 °F - 61.0 °F 73% 30.09 in 10.0 mi Calm Calm - N/A   Clear
9:53 PM 66.0 °F - 61.0 °F 84% 30.10 in 10.0 mi SSW 3.5 mph - N/A   Clear
10:53 PM 64.9 °F - 61.0 °F 87% 30.12 in 10.0 mi Calm Calm - N/A   Clear
11:53 PM 64.0 °F - 61.0 °F 90% 30.12 in 10.0 mi Calm Calm - N/A   Clear